,,Stat5,,Stat1,,Stat2,,Stat3,,Stat4,,Wind1,,Wind1,
time,status,PA1M_AVG,status,PR1M_SUM,status,RH1M_AVG,status,SR1M_AVG,status,TA1M_AVG,status,W1dAve1m,status,W1sAve1m,
2001-01-16, 00:00:01,VALID,917.809,VALID,0,VALID,99.1432,VALID,0,VALID,19.8781,VALID,234,VALID,0.910457,
2001-01-16, 00:01:00,VALID,917.804,VALID,0,VALID,99.1445,VALID,0,VALID,19.8911,VALID,236,VALID,1.20223,
2001-01-16, 00:02:00,VALID,917.783,VALID,0,VALID,99.1343,VALID,0,VALID,19.8876,VALID,223,VALID,1.14725,
2001-01-16, 00:03:00,VALID,917.791,VALID,0,VALID,99.1267,VALID,0,VALID,19.8913,VALID,230,VALID,1.15878,
2001-01-16, 00:04:00,VALID,917.773,VALID,0,VALID,99.1228,VALID,-0.0169808,VALID,19.8814,VALID,229,VALID,1.35395,
2001-01-16, 00:05:00,VALID,917.767,VALID,0,VALID,99.105,VALID,-0.0169808,VALID,19.8685,VALID,229,VALID,1.37911,
2001-01-16, 00:06:00,VALID,917.746,VALID,0,VALID,99.0885,VALID,0.0169808,VALID,19.8456,VALID,223,VALID,1.40329,
2001-01-16, 00:07:00,VALID,917.727,VALID,0,VALID,99.0949,VALID,0,VALID,19.8332,VALID,229,VALID,1.52589,
2001-01-16, 00:08:00,VALID,917.708,VALID,0,VALID,99.1165,VALID,0,VALID,19.8391,VALID,229,VALID,1.63446,
2001-01-16, 00:09:00,VALID,917.701,VALID,0,VALID,99.133,VALID,0,VALID,19.8356,VALID,223,VALID,2.03399,
2001-01-16, 00:10:00,VALID,917.683,VALID,0,VALID,99.1419,VALID,0,VALID,19.8526,VALID,230,VALID,1.50761,
2001-01-16, 00:11:00,VALID,917.671,VALID,0,VALID,99.1661,VALID,0,VALID,19.8617,VALID,228,VALID,1.98353,
2001-01-16, 00:12:00,VALID,917.657,VALID,0,VALID,99.1648,VALID,0,VALID,19.8876,VALID,226,VALID,1.54709,
2001-01-16, 00:13:00,VALID,917.657,VALID,0,VALID,99.1674,VALID,0,VALID,19.8973,VALID,224,VALID,1.86599,
2001-01-16, 00:14:00,VALID,917.641,VALID,0,VALID,99.1763,VALID,0,VALID,19.9204,VALID,219,VALID,1.77367,
2001-01-16, 00:15:00,VALID,917.62,VALID,0,VALID,99.1585,VALID,0.0169808,VALID,19.9366,VALID,219,VALID,1.32767,
2001-01-16, 00:16:00,VALID,917.606,VALID,0,VALID,99.1534,VALID,-0.0169808,VALID,19.946,VALID,217,VALID,1.05912,
2001-01-16, 00:17:00,VALID,917.582,VALID,0,VALID,99.1457,VALID,0.0169808,VALID,19.9686,VALID,190,VALID,1.23839,
2001-01-16, 00:18:00,VALID,917.573,VALID,0,VALID,99.1203,VALID,0,VALID,19.9815,VALID,181,VALID,1.15224,
2001-01-16, 00:19:00,VALID,917.559,VALID,0,VALID,99.1025,VALID,-0.0169808,VALID,19.9915,VALID,184,VALID,0.759115,
2001-01-16, 00:20:00,VALID,917.537,VALID,0,VALID,99.0707,VALID,0,VALID,19.9947,VALID,184,VALID,0.701923,
2001-01-16, 00:21:00,VALID,917.521,VALID,0,VALID,99.0593,VALID,0.0509425,VALID,19.991,VALID,196,VALID,0.546453,
2001-01-16, 00:22:00,VALID,917.504,VALID,0.2,VALID,99.0466,VALID,0.0509425,VALID,19.9803,VALID,190,VALID,0.564062,
2001-01-16, 00:23:00,VALID,917.463,VALID,0,VALID,99.0262,VALID,0.0849042,VALID,19.977,VALID,189,VALID,0.558594,
2001-01-16, 00:24:00,VALID,917.465,VALID,0,VALID,99.0198,VALID,0.101885,VALID,19.9606,VALID,205,VALID,0.97424,
2001-01-16, 00:25:00,VALID,917.449,VALID,0,VALID,99.0224,VALID,0.0509425,VALID,19.9644,VALID,175,VALID,0.407484,
2001-01-16, 00:26:00,VALID,917.435,VALID,0,VALID,99.0186,VALID,0.0849042,VALID,19.9477,VALID,183,VALID,0.692356,
2001-01-16, 00:27:00,VALID,917.434,VALID,0,VALID,99.0071,VALID,0.0849042,VALID,19.9646,VALID,181,VALID,0.428125,
2001-01-16, 00:28:00,VALID,917.437,VALID,0,VALID,99.0122,VALID,0.0339617,VALID,19.9547,VALID,176,VALID,0.328926,
2001-01-16, 00:29:00,VALID,917.436,VALID,0,VALID,99.0211,VALID,0.0679233,VALID,19.9549,VALID,160,VALID,0.219697,
2001-01-16, 00:30:00,VALID,917.435,VALID,0,VALID,99.0122,VALID,0.101885,VALID,19.9619,VALID,181,VALID,0.268153,
2001-01-16, 00:31:00,VALID,917.429,VALID,0,VALID,99.0071,VALID,0.0849042,VALID,19.9544,VALID,177,VALID,0.419341,
2001-01-16, 00:32:00,VALID,917.44,VALID,0,VALID,98.9919,VALID,0.0679233,VALID,19.9544,VALID,180,VALID,0.50549,
2001-01-16, 00:33:00,VALID,917.442,VALID,0,VALID,98.983,VALID,0.0679233,VALID,19.9413,VALID,208,VALID,0.678843,
2001-01-16, 00:34:00,VALID,917.443,VALID,0,VALID,98.969,VALID,0.0849042,VALID,19.9316,VALID,175,VALID,0.540582,
2001-01-16, 00:35:00,VALID,917.45,VALID,0,VALID,98.9652,VALID,0.0849042,VALID,19.9321,VALID,211,VALID,0.298678,
2001-01-16, 00:36:00,VALID,917.459,VALID,0,VALID,98.9728,VALID,0,VALID,19.9395,VALID,199,VALID,0.0977618,
2001-01-16, 00:37:00,VALID,917.461,VALID,0,VALID,98.9499,VALID,-0.0339617,VALID,19.94,VALID,203,VALID,0.777679,
2001-01-16, 00:38:00,VALID,917.463,VALID,0,VALID,98.9258,VALID,-0.0169808,VALID,19.9139,VALID,202,VALID,0.72903,
2001-01-16, 00:39:00,VALID,917.464,VALID,0,VALID,98.9143,VALID,-0.0169808,VALID,19.9105,VALID,221,VALID,0.611486,
2001-01-16, 00:40:00,VALID,917.461,VALID,0,VALID,98.9207,VALID,-0.0169808,VALID,19.9047,VALID,234,VALID,0.515419,
2001-01-16, 00:41:00,VALID,917.458,VALID,0,VALID,98.9385,VALID,0,VALID,19.9008,VALID,221,VALID,0.390414,
2001-01-16, 00:42:00,VALID,917.47,VALID,0,VALID,98.9461,VALID,-0.0169808,VALID,19.901,VALID,227,VALID,0.680357,
2001-01-16, 00:43:00,VALID,917.475,VALID,0,VALID,98.9499,VALID,-0.0339617,VALID,19.8978,VALID,225,VALID,0.630008,
2001-01-16, 00:44:00,VALID,917.486,VALID,0,VALID,98.9448,VALID,-0.0169808,VALID,19.9008,VALID,236,VALID,0.172348,
2001-01-16, 00:45:00,VALID,917.502,VALID,0,VALID,98.9486,VALID,-0.0849042,VALID,19.9075,VALID,251,VALID,0.0618107,
2001-01-16, 00:46:00,VALID,917.505,VALID,0,VALID,98.9525,VALID,-0.0169808,VALID,19.9072,VALID,250,VALID,0.111486,
2001-01-16, 00:47:00,VALID,917.494,VALID,0,VALID,98.9512,VALID,-0.0169808,VALID,19.9201,VALID,249,VALID,0.0595439,
2001-01-16, 00:48:00,VALID,917.478,VALID,0,VALID,98.9664,VALID,-0.0169808,VALID,19.9231,VALID,238,VALID,0.222551,
2001-01-16, 00:49:00,VALID,917.479,VALID,0,VALID,98.9537,VALID,0,VALID,19.9269,VALID,230,VALID,0.424479,
2001-01-16, 00:50:00,VALID,917.455,VALID,0,VALID,98.9436,VALID,0,VALID,19.9303,VALID,235,VALID,0.518029,
2001-01-16, 00:51:00,VALID,917.427,VALID,0,VALID,98.9359,VALID,0,VALID,19.9134,VALID,225,VALID,0.634291,
2001-01-16, 00:52:00,VALID,917.404,VALID,0,VALID,98.9181,VALID,-0.0169808,VALID,19.9169,VALID,219,VALID,0.877902,
2001-01-16, 00:53:00,VALID,917.402,VALID,0,VALID,98.899,VALID,0,VALID,19.9134,VALID,204,VALID,0.794408,
2001-01-16, 00:54:00,VALID,917.392,VALID,0,VALID,98.8914,VALID,-0.0169808,VALID,19.9075,VALID,222,VALID,1.23374,
2001-01-16, 00:55:00,VALID,917.385,VALID,0,VALID,98.8749,VALID,-0.0169808,VALID,19.9274,VALID,234,VALID,1.1616,
2001-01-16, 00:56:00,VALID,917.374,VALID,0,VALID,98.8456,VALID,-0.0169808,VALID,19.9269,VALID,232,VALID,1.06757,
2001-01-16, 00:57:00,VALID,917.371,VALID,0,VALID,98.8024,VALID,-0.0169808,VALID,19.9271,VALID,202,VALID,0.838839,
2001-01-16, 00:58:00,VALID,917.351,VALID,0,VALID,98.7503,VALID,-0.0169808,VALID,19.9271,VALID,225,VALID,0.823918,
2001-01-16, 00:59:00,VALID,917.343,VALID,0,VALID,98.7096,VALID,-0.0339617,VALID,19.9559,VALID,247,VALID,0.164773,
2001-01-16, 01:00:00,VALID,917.343,VALID,0,VALID,98.6524,VALID,-0.0339617,VALID,19.9661,VALID,220,VALID,0.179228,
2001-01-16, 01:01:00,VALID,917.335,VALID,0,VALID,98.5926,VALID,-0.0339617,VALID,19.9661,VALID,188,VALID,0.138514,
2001-01-16, 01:02:00,VALID,917.336,VALID,0,VALID,98.5417,VALID,-0.0339617,VALID,19.9691,VALID,213,VALID,0.109375,
2001-01-16, 01:03:00,VALID,917.356,VALID,0,VALID,98.4794,VALID,-0.0339617,VALID,19.9689,VALID,333,VALID,0.143581,
2001-01-16, 01:04:00,VALID,917.379,VALID,0,VALID,98.4031,VALID,-0.0339617,VALID,19.9686,VALID,83,VALID,0.699219,
2001-01-16, 01:05:00,VALID,917.386,VALID,0,VALID,98.3395,VALID,-0.0169808,VALID,19.9495,VALID,101,VALID,0.586939,
2001-01-16, 01:06:00,VALID,917.392,VALID,0,VALID,98.309,VALID,0,VALID,19.9336,VALID,115,VALID,0.381123,
2001-01-16, 01:07:00,VALID,917.391,VALID,0,VALID,98.3027,VALID,-0.0169808,VALID,19.9075,VALID,123,VALID,0.675223,
2001-01-16, 01:08:00,VALID,917.387,VALID,0,VALID,98.2721,VALID,-0.0339617,VALID,19.869,VALID,127,VALID,0.271793,
2001-01-16, 01:09:00,VALID,917.386,VALID,0,VALID,98.2785,VALID,-0.0339617,VALID,19.8463,VALID,139,VALID,0.099451,
2001-01-16, 01:10:00,VALID,917.383,VALID,0,VALID,98.2734,VALID,0,VALID,19.817,VALID,148,VALID,0,
2001-01-16, 01:11:00,VALID,917.382,VALID,0,VALID,98.3128,VALID,-0.0169808,VALID,19.8011,VALID,169,VALID,0,
2001-01-16, 01:12:00,VALID,917.385,VALID,0,VALID,98.3561,VALID,-0.0169808,VALID,19.7817,VALID,170,VALID,0,
2001-01-16, 01:13:00,VALID,917.381,VALID,0,VALID,98.3955,VALID,-0.0509425,VALID,19.7758,VALID,170,VALID,0,
2001-01-16, 01:14:00,VALID,917.381,VALID,0,VALID,98.4476,VALID,-0.0339617,VALID,19.7723,VALID,170,VALID,0,
2001-01-16, 01:15:00,VALID,917.381,VALID,0,VALID,98.482,VALID,-0.0339617,VALID,19.772,VALID,170,VALID,0,
2001-01-16, 01:16:00,VALID,917.381,VALID,0,VALID,98.4947,VALID,0,VALID,19.7591,VALID,170,VALID,0,
2001-01-16, 01:17:00,VALID,917.373,VALID,0,VALID,98.5455,VALID,-0.0169808,VALID,19.7618,VALID,170,VALID,0,
2001-01-16, 01:18:00,VALID,917.372,VALID,0,VALID,98.557,VALID,-0.0509425,VALID,19.7753,VALID,170,VALID,0,
2001-01-16, 01:19:00,VALID,917.364,VALID,0,VALID,98.5875,VALID,-0.0169808,VALID,19.7785,VALID,170,VALID,0,
2001-01-16, 01:20:00,VALID,917.362,VALID,0,VALID,98.5862,VALID,-0.0339617,VALID,19.782,VALID,170,VALID,0,
2001-01-16, 01:21:00,VALID,917.34,VALID,0,VALID,98.571,VALID,-0.0169808,VALID,19.7718,VALID,153,VALID,0,
2001-01-16, 01:22:00,VALID,917.334,VALID,0,VALID,98.5697,VALID,-0.0169808,VALID,19.7584,VALID,139,VALID,0,
2001-01-16, 01:23:00,VALID,917.335,VALID,0,VALID,98.557,VALID,0,VALID,19.7499,VALID,139,VALID,0,
2001-01-16, 01:24:00,VALID,917.329,VALID,0,VALID,98.5557,VALID,-0.0169808,VALID,19.7395,VALID,139,VALID,0,
2001-01-16, 01:25:00,VALID,917.319,VALID,0,VALID,98.5926,VALID,0.0169808,VALID,19.7397,VALID,139,VALID,0,
2001-01-16, 01:26:00,VALID,917.3,VALID,0,VALID,98.618,VALID,0,VALID,19.7395,VALID,143,VALID,0,
2001-01-16, 01:27:00,VALID,917.287,VALID,0,VALID,98.5977,VALID,0,VALID,19.7363,VALID,176,VALID,0,
2001-01-16, 01:28:00,VALID,917.266,VALID,0,VALID,98.6117,VALID,-0.0169808,VALID,19.7328,VALID,199,VALID,0,
2001-01-16, 01:29:00,VALID,917.243,VALID,0,VALID,98.6371,VALID,0,VALID,19.733,VALID,201,VALID,0.255445,
2001-01-16, 01:30:00,VALID,917.225,VALID,0,VALID,98.6765,VALID,0,VALID,19.7529,VALID,208,VALID,0.500919,
2001-01-16, 01:31:00,VALID,917.209,VALID,0,VALID,98.7134,VALID,0,VALID,19.7822,VALID,206,VALID,0.779983,
2001-01-16, 01:32:00,VALID,917.196,VALID,0,VALID,98.7197,VALID,0,VALID,19.7812,VALID,201,VALID,0.807855,
2001-01-16, 01:33:00,VALID,917.184,VALID,0,VALID,98.693,VALID,-0.0169808,VALID,19.7944,VALID,189,VALID,0.809544,
2001-01-16, 01:34:00,VALID,917.183,VALID,0,VALID,98.6206,VALID,0,VALID,19.8006,VALID,181,VALID,1.00608,
2001-01-16, 01:35:00,VALID,917.174,VALID,0,VALID,98.571,VALID,0,VALID,19.8396,VALID,179,VALID,0.572917,
2001-01-16, 01:36:00,VALID,917.169,VALID,0,VALID,98.4883,VALID,0,VALID,19.8523,VALID,179,VALID,0.241132,
2001-01-16, 01:37:00,VALID,917.158,VALID,0,VALID,98.4247,VALID,-0.0169808,VALID,19.8585,VALID,174,VALID,0.705804,
2001-01-16, 01:38:00,VALID,917.157,VALID,0,VALID,98.3472,VALID,0,VALID,19.8878,VALID,184,VALID,0.489515,
2001-01-16, 01:39:00,VALID,917.138,VALID,0,VALID,98.2861,VALID,0.0169808,VALID,19.8946,VALID,160,VALID,0.607686,
2001-01-16, 01:40:00,VALID,917.122,VALID,0,VALID,98.2048,VALID,-0.0169808,VALID,19.8908,VALID,155,VALID,0.66139,
2001-01-16, 01:41:00,VALID,917.124,VALID,0,VALID,98.1132,VALID,0,VALID,19.898,VALID,162,VALID,0.539907,
2001-01-16, 01:42:00,VALID,917.106,VALID,0,VALID,98.0382,VALID,-0.0169808,VALID,19.8754,VALID,159,VALID,0.455804,
2001-01-16, 01:43:00,VALID,917.109,VALID,0,VALID,97.9886,VALID,0,VALID,19.859,VALID,158,VALID,0.513221,
2001-01-16, 01:44:00,VALID,917.106,VALID,0,VALID,97.9555,VALID,-0.0169808,VALID,19.8503,VALID,136,VALID,0.530777,
2001-01-16, 01:45:00,VALID,917.105,VALID,0,VALID,97.9275,VALID,0,VALID,19.8041,VALID,111,VALID,0.750689,
2001-01-16, 01:46:00,VALID,917.119,VALID,0,VALID,97.9237,VALID,0,VALID,19.7785,VALID,106,VALID,0.792652,
2001-01-16, 01:47:00,VALID,917.121,VALID,0,VALID,97.9377,VALID,0,VALID,19.7425,VALID,101,VALID,0.883868,
2001-01-16, 01:48:00,VALID,917.114,VALID,0,VALID,97.9886,VALID,0,VALID,19.7171,VALID,111,VALID,0.914907,
2001-01-16, 01:49:00,VALID,917.107,VALID,0,VALID,98.0458,VALID,-0.0169808,VALID,19.6875,VALID,128,VALID,0.881727,
2001-01-16, 01:50:00,VALID,917.09,VALID,0,VALID,98.1157,VALID,0,VALID,19.6649,VALID,146,VALID,0.635417,
2001-01-16, 01:51:00,VALID,917.085,VALID,0,VALID,98.1895,VALID,0,VALID,19.6557,VALID,160,VALID,0.916596,
2001-01-16, 01:52:00,VALID,917.074,VALID,0,VALID,98.2632,VALID,0,VALID,19.649,VALID,171,VALID,0.741071,
2001-01-16, 01:53:00,VALID,917.073,VALID,0,VALID,98.3777,VALID,0,VALID,19.662,VALID,179,VALID,0.820724,
2001-01-16, 01:54:00,VALID,917.061,VALID,0,VALID,98.3993,VALID,-0.0509425,VALID,19.6662,VALID,165,VALID,0.398015,
2001-01-16, 01:55:00,VALID,917.053,VALID,0,VALID,98.4286,VALID,-0.0169808,VALID,19.6724,VALID,171,VALID,0.395765,
2001-01-16, 01:56:00,VALID,917.057,VALID,0,VALID,98.4489,VALID,0,VALID,19.6622,VALID,202,VALID,0.0635557,
2001-01-16, 01:57:00,VALID,917.036,VALID,0,VALID,98.5036,VALID,-0.0169808,VALID,19.662,VALID,170,VALID,0.387054,
2001-01-16, 01:58:00,VALID,917.027,VALID,0,VALID,98.5112,VALID,0,VALID,19.6692,VALID,189,VALID,0.192508,
2001-01-16, 01:59:00,VALID,917.027,VALID,0,VALID,98.5481,VALID,-0.0679233,VALID,19.6751,VALID,183,VALID,0.104877,
2001-01-16, 02:00:00,VALID,917.037,VALID,0,VALID,98.543,VALID,-0.0169808,VALID,19.6756,VALID,147,VALID,0.0700827,
2001-01-16, 02:01:00,VALID,917.046,VALID,0,VALID,98.5481,VALID,-0.0339617,VALID,19.6716,VALID,146,VALID,0,
2001-01-16, 02:02:00,VALID,917.052,VALID,0,VALID,98.5481,VALID,-0.0169808,VALID,19.6622,VALID,129,VALID,0.169975,
2001-01-16, 02:03:00,VALID,917.063,VALID,0,VALID,98.5532,VALID,-0.0339617,VALID,19.6488,VALID,115,VALID,0,
2001-01-16, 02:04:00,VALID,917.065,VALID,0,VALID,98.5583,VALID,-0.0169808,VALID,19.649,VALID,97,VALID,0,
2001-01-16, 02:05:00,VALID,917.065,VALID,0,VALID,98.5684,VALID,-0.0169808,VALID,19.6463,VALID,64,VALID,0.611378,
2001-01-16, 02:06:00,VALID,917.034,VALID,0,VALID,98.5544,VALID,0.0509425,VALID,19.6294,VALID,55,VALID,0.283573,
2001-01-16, 02:07:00,VALID,917.016,VALID,0,VALID,98.5786,VALID,0.0679233,VALID,19.6257,VALID,43,VALID,0.179464,
2001-01-16, 02:08:00,VALID,916.985,VALID,0,VALID,98.6053,VALID,0.0849042,VALID,19.6093,VALID,32,VALID,0.147615,
2001-01-16, 02:09:00,VALID,916.964,VALID,0,VALID,98.6231,VALID,0.0849042,VALID,19.6125,VALID,30,VALID,0,
2001-01-16, 02:10:00,VALID,916.942,VALID,0,VALID,98.6358,VALID,0.0849042,VALID,19.6028,VALID,30,VALID,0,
2001-01-16, 02:11:00,VALID,916.944,VALID,0,VALID,98.6562,VALID,0.0849042,VALID,19.5991,VALID,30,VALID,0,
2001-01-16, 02:12:00,VALID,916.937,VALID,0,VALID,98.6867,VALID,0.0849042,VALID,19.6058,VALID,30,VALID,0,
2001-01-16, 02:13:00,VALID,916.945,VALID,0,VALID,98.7045,VALID,0.0509425,VALID,19.6123,VALID,30,VALID,0,
2001-01-16, 02:14:00,VALID,916.944,VALID,0,VALID,98.7223,VALID,0.0849042,VALID,19.6192,VALID,30,VALID,0.0343277,
2001-01-16, 02:15:00,VALID,916.952,VALID,0,VALID,98.7325,VALID,0.0509425,VALID,19.6095,VALID,30,VALID,0.480239,
2001-01-16, 02:16:00,VALID,916.965,VALID,0,VALID,98.7363,VALID,0.101885,VALID,19.6031,VALID,75,VALID,0.292863,
2001-01-16, 02:17:00,VALID,916.96,VALID,0,VALID,98.7477,VALID,0.0849042,VALID,19.6001,VALID,81,VALID,0.0553209,
2001-01-16, 02:18:00,VALID,916.98,VALID,0,VALID,98.7554,VALID,0.0849042,VALID,19.5837,VALID,86,VALID,0.151816,
2001-01-16, 02:19:00,VALID,916.972,VALID,0,VALID,98.7554,VALID,0.0849042,VALID,19.5735,VALID,102,VALID,0.603082,
2001-01-16, 02:20:00,VALID,916.97,VALID,0,VALID,98.7375,VALID,0.0679233,VALID,19.5506,VALID,104,VALID,0.184295,
2001-01-16, 02:21:00,VALID,916.951,VALID,0,VALID,98.7452,VALID,-0.0169808,VALID,19.5496,VALID,104,VALID,0,
2001-01-16, 02:22:00,VALID,916.924,VALID,0,VALID,98.7668,VALID,-0.0169808,VALID,19.5427,VALID,104,VALID,0,
2001-01-16, 02:23:00,VALID,916.892,VALID,0,VALID,98.8037,VALID,0,VALID,19.5653,VALID,104,VALID,0,
2001-01-16, 02:24:00,VALID,916.869,VALID,0,VALID,98.8431,VALID,0,VALID,19.568,VALID,82,VALID,0,
2001-01-16, 02:25:00,VALID,916.85,VALID,0,VALID,98.8622,VALID,0,VALID,19.5877,VALID,14,VALID,0.0686678,
2001-01-16, 02:26:00,VALID,916.821,VALID,0,VALID,98.88,VALID,-0.0509425,VALID,19.5983,VALID,298,VALID,0.117399,
2001-01-16, 02:27:00,VALID,916.823,VALID,0,VALID,98.894,VALID,0,VALID,19.5877,VALID,298,VALID,0,
2001-01-16, 02:28:00,VALID,916.821,VALID,0,VALID,98.9054,VALID,-0.0169808,VALID,19.6142,VALID,298,VALID,0,
2001-01-16, 02:29:00,VALID,916.848,VALID,0,VALID,98.9245,VALID,-0.0169808,VALID,19.6209,VALID,298,VALID,0,
2001-01-16, 02:30:00,VALID,916.837,VALID,0,VALID,98.9512,VALID,-0.0169808,VALID,19.6368,VALID,298,VALID,0,
2001-01-16, 02:31:00,VALID,916.845,VALID,0,VALID,98.9614,VALID,0,VALID,19.6398,VALID,266,VALID,0,
2001-01-16, 02:32:00,VALID,916.858,VALID,0,VALID,98.9664,VALID,0,VALID,19.6401,VALID,260,VALID,0,
2001-01-16, 02:33:00,VALID,916.836,VALID,0,VALID,98.9652,VALID,-0.0169808,VALID,19.6339,VALID,261,VALID,0.287796,
2001-01-16, 02:34:00,VALID,916.835,VALID,0,VALID,98.9652,VALID,-0.0169808,VALID,19.6304,VALID,270,VALID,0.304688,
2001-01-16, 02:35:00,VALID,916.807,VALID,0,VALID,98.9779,VALID,-0.0169808,VALID,19.6272,VALID,266,VALID,0.234776,
2001-01-16, 02:36:00,VALID,916.789,VALID,0,VALID,98.9804,VALID,-0.0509425,VALID,19.6207,VALID,256,VALID,0.205025,
2001-01-16, 02:37:00,VALID,916.774,VALID,0,VALID,98.9881,VALID,0,VALID,19.6172,VALID,241,VALID,0.442634,
2001-01-16, 02:38:00,VALID,916.779,VALID,0,VALID,98.9944,VALID,0,VALID,19.6142,VALID,213,VALID,0.155222,
2001-01-16, 02:39:00,VALID,916.783,VALID,0,VALID,98.9753,VALID,-0.0339617,VALID,19.5976,VALID,166,VALID,0.527027,
2001-01-16, 02:40:00,VALID,916.803,VALID,0,VALID,98.9614,VALID,0,VALID,19.5782,VALID,155,VALID,0.261513,
2001-01-16, 02:41:00,VALID,916.815,VALID,0,VALID,98.9677,VALID,-0.0169808,VALID,19.5653,VALID,175,VALID,0,
2001-01-16, 02:42:00,VALID,916.813,VALID,0,VALID,98.9804,VALID,-0.0169808,VALID,19.5556,VALID,169,VALID,0,
2001-01-16, 02:43:00,VALID,916.814,VALID,0,VALID,99.0033,VALID,-0.0169808,VALID,19.5688,VALID,168,VALID,0,
2001-01-16, 02:44:00,VALID,916.806,VALID,0,VALID,99.0122,VALID,0,VALID,19.5618,VALID,166,VALID,0,
2001-01-16, 02:45:00,VALID,916.823,VALID,0,VALID,99.03,VALID,-0.0169808,VALID,19.5717,VALID,164,VALID,0,
2001-01-16, 02:46:00,VALID,916.823,VALID,0,VALID,99.0249,VALID,-0.0169808,VALID,19.5785,VALID,160,VALID,0,
2001-01-16, 02:47:00,VALID,916.837,VALID,0,VALID,99.0351,VALID,0,VALID,19.5981,VALID,159,VALID,0,
2001-01-16, 02:48:00,VALID,916.83,VALID,0,VALID,99.0402,VALID,0,VALID,19.5976,VALID,157,VALID,0,
2001-01-16, 02:49:00,VALID,916.853,VALID,0,VALID,99.03,VALID,0,VALID,19.5911,VALID,46,VALID,0,
2001-01-16, 02:50:00,VALID,916.861,VALID,0,VALID,99.0224,VALID,0,VALID,19.5976,VALID,29,VALID,0,
2001-01-16, 02:51:00,VALID,916.87,VALID,0,VALID,99.0097,VALID,0.0169808,VALID,19.5777,VALID,30,VALID,0,
2001-01-16, 02:52:00,VALID,916.881,VALID,0,VALID,99.002,VALID,0,VALID,19.5742,VALID,42,VALID,0,
2001-01-16, 02:53:00,VALID,916.883,VALID,0,VALID,99.0059,VALID,0.0169808,VALID,19.5775,VALID,51,VALID,0,
2001-01-16, 02:54:00,VALID,916.89,VALID,0,VALID,98.9919,VALID,0,VALID,19.5747,VALID,51,VALID,0,
2001-01-16, 02:55:00,VALID,916.879,VALID,0,VALID,99.0059,VALID,0,VALID,19.5884,VALID,51,VALID,0,
2001-01-16, 02:56:00,VALID,916.882,VALID,0,VALID,98.9893,VALID,-0.0169808,VALID,19.5785,VALID,51,VALID,0,
2001-01-16, 02:57:00,VALID,916.869,VALID,0,VALID,98.997,VALID,-0.0339617,VALID,19.5946,VALID,51,VALID,0,
2001-01-16, 02:58:00,VALID,916.872,VALID,0,VALID,99.0097,VALID,0,VALID,19.5877,VALID,51,VALID,0,
2001-01-16, 02:59:00,VALID,916.872,VALID,0,VALID,99.0059,VALID,0,VALID,19.5842,VALID,51,VALID,0,
2001-01-16, 03:00:00,VALID,916.852,VALID,0,VALID,99.0122,VALID,0,VALID,19.5939,VALID,51,VALID,0,
2001-01-16, 03:01:00,VALID,916.838,VALID,0,VALID,99.0262,VALID,0.0169808,VALID,19.6011,VALID,50,VALID,0,
2001-01-16, 03:02:00,VALID,916.83,VALID,0,VALID,99.0351,VALID,0,VALID,19.6008,VALID,50,VALID,0,
2001-01-16, 03:03:00,VALID,916.819,VALID,0,VALID,99.044,VALID,0,VALID,19.6142,VALID,51,VALID,0,
2001-01-16, 03:04:00,VALID,916.819,VALID,0,VALID,99.0478,VALID,0,VALID,19.6234,VALID,61,VALID,0,
2001-01-16, 03:05:00,VALID,916.797,VALID,0,VALID,99.0631,VALID,0,VALID,19.6294,VALID,95,VALID,0,
2001-01-16, 03:06:00,VALID,916.792,VALID,0,VALID,99.0605,VALID,0,VALID,19.6428,VALID,98,VALID,0,
2001-01-16, 03:07:00,VALID,916.785,VALID,0,VALID,99.0656,VALID,0,VALID,19.6329,VALID,93,VALID,0,
2001-01-16, 03:08:00,VALID,916.777,VALID,0,VALID,99.0504,VALID,0.0339617,VALID,19.613,VALID,97,VALID,0,
2001-01-16, 03:09:00,VALID,916.778,VALID,0,VALID,99.0402,VALID,0.0169808,VALID,19.6006,VALID,91,VALID,0,
2001-01-16, 03:10:00,VALID,916.774,VALID,0,VALID,99.0351,VALID,0,VALID,19.5775,VALID,97,VALID,0,
2001-01-16, 03:11:00,VALID,916.763,VALID,0,VALID,99.0313,VALID,0,VALID,19.5583,VALID,84,VALID,0,
2001-01-16, 03:12:00,VALID,916.744,VALID,0,VALID,99.03,VALID,0.0339617,VALID,19.5355,VALID,60,VALID,0,
2001-01-16, 03:13:00,VALID,916.734,VALID,0,VALID,99.0287,VALID,0.0169808,VALID,19.5201,VALID,55,VALID,0,
2001-01-16, 03:14:00,VALID,916.715,VALID,0,VALID,99.0224,VALID,0,VALID,19.4965,VALID,52,VALID,0,
2001-01-16, 03:15:00,VALID,916.709,VALID,0,VALID,99.0427,VALID,0.0169808,VALID,19.4967,VALID,35,VALID,0,
2001-01-16, 03:16:00,VALID,916.702,VALID,0,VALID,99.0516,VALID,0,VALID,19.5066,VALID,49,VALID,0,
2001-01-16, 03:17:00,VALID,916.715,VALID,0,VALID,99.058,VALID,0,VALID,19.5037,VALID,65,VALID,0,
2001-01-16, 03:18:00,VALID,916.718,VALID,0,VALID,99.0771,VALID,0.0169808,VALID,19.494,VALID,65,VALID,0,
2001-01-16, 03:19:00,VALID,916.713,VALID,0,VALID,99.0745,VALID,0,VALID,19.4972,VALID,65,VALID,0,
2001-01-16, 03:20:00,VALID,916.735,VALID,0,VALID,99.0872,VALID,0,VALID,19.5037,VALID,65,VALID,0,
2001-01-16, 03:21:00,VALID,916.73,VALID,0,VALID,99.0936,VALID,0.0339617,VALID,19.5037,VALID,92,VALID,0,
2001-01-16, 03:22:00,VALID,916.736,VALID,0,VALID,99.1,VALID,0,VALID,19.5034,VALID,118,VALID,0,
2001-01-16, 03:23:00,VALID,916.727,VALID,0,VALID,99.1025,VALID,0,VALID,19.5205,VALID,127,VALID,0,
2001-01-16, 03:24:00,VALID,916.711,VALID,0,VALID,99.1063,VALID,0,VALID,19.5201,VALID,134,VALID,0,
2001-01-16, 03:25:00,VALID,916.702,VALID,0,VALID,99.0783,VALID,0.0169808,VALID,19.5071,VALID,134,VALID,0,
2001-01-16, 03:26:00,VALID,916.689,VALID,0,VALID,99.0847,VALID,0.0169808,VALID,19.4942,VALID,134,VALID,0,
2001-01-16, 03:27:00,VALID,916.674,VALID,0,VALID,99.0834,VALID,0,VALID,19.4878,VALID,134,VALID,0,
2001-01-16, 03:28:00,VALID,916.655,VALID,0,VALID,99.0898,VALID,0,VALID,19.4912,VALID,133,VALID,0,
2001-01-16, 03:29:00,VALID,916.642,VALID,0,VALID,99.1063,VALID,0,VALID,19.4873,VALID,133,VALID,0,
2001-01-16, 03:30:00,VALID,916.614,VALID,0.2,VALID,99.1254,VALID,0.0169808,VALID,19.4905,VALID,133,VALID,0,
2001-01-16, 03:31:00,VALID,916.592,VALID,0,VALID,99.1241,VALID,0,VALID,19.487,VALID,133,VALID,0,
2001-01-16, 03:32:00,VALID,916.566,VALID,0,VALID,99.1356,VALID,0.0169808,VALID,19.5004,VALID,133,VALID,0,
2001-01-16, 03:33:00,VALID,916.547,VALID,0,VALID,99.1445,VALID,0,VALID,19.5136,VALID,133,VALID,0,
2001-01-16, 03:34:00,VALID,916.547,VALID,0,VALID,99.1381,VALID,-0.0169808,VALID,19.5235,VALID,133,VALID,0,
2001-01-16, 03:35:00,VALID,916.525,VALID,0.2,VALID,99.1508,VALID,-0.0169808,VALID,19.5302,VALID,133,VALID,0,
2001-01-16, 03:36:00,VALID,916.507,VALID,0,VALID,99.1508,VALID,0.0169808,VALID,19.5265,VALID,133,VALID,0,
2001-01-16, 03:37:00,VALID,916.502,VALID,0,VALID,99.1496,VALID,0,VALID,19.524,VALID,133,VALID,0,
2001-01-16, 03:38:00,VALID,916.49,VALID,0,VALID,99.1572,VALID,0,VALID,19.5136,VALID,133,VALID,0,
2001-01-16, 03:39:00,VALID,916.482,VALID,0.2,VALID,99.1521,VALID,0,VALID,19.5233,VALID,133,VALID,0,
2001-01-16, 03:40:00,VALID,916.485,VALID,0,VALID,99.161,VALID,-0.0169808,VALID,19.5437,VALID,133,VALID,0,